Location: ???????
(54.9996°N, 37.9529°E)
Time: 06:05:19
(UTC+00:00)

Lacrosse 4 Rocket - Visible Passes

Search period start: 13 July 2024 00:00
Search period end: 23 July 2024 00:00
Orbit: 526 x 593 km, 68.0° (Epoch: 12 July)

Date Brightness Start Highest point End Pass type
(mag) Time Alt. Az. Time Alt. Az. Time Alt. Az.
13 Jul 3.6 21:48:24 10° SE 21:50:07 12° ESE 21:51:50 10° E visible
13 Jul 1.4 23:24:10 14° SSW 23:27:37 75° SE 23:31:46 10° NE visible
14 Jul 3.3 21:46:33 13° SE 21:48:17 16° ESE 21:50:48 10° ENE visible
14 Jul 1.3 23:22:26 14° SW 23:25:57 87° NW 23:30:07 10° NE visible
15 Jul 3.0 21:44:48 16° SE 21:46:28 20° ESE 21:49:31 10° ENE visible
15 Jul 1.5 23:20:40 13° SW 23:24:17 70° NW 23:28:27 10° NE visible
16 Jul 2.7 21:42:59 19° SSE 21:44:40 26° ESE 21:48:05 10° ENE visible
16 Jul 1.8 23:18:52 11° WSW 23:22:39 56° NW 23:26:46 10° NE visible
17 Jul 2.3 21:41:08 23° SSE 21:42:52 32° ESE 21:46:35 10° NE visible
17 Jul 2.2 23:17:06 10° WSW 23:21:02 46° NW 23:25:05 10° NNE visible
18 Jul 1.9 21:39:13 25° S 21:41:06 41° ESE 21:45:01 10° NE visible
18 Jul 2.5 23:15:35 10° WSW 23:19:25 38° NW 23:23:21 10° NNE visible
19 Jul 1.6 21:37:16 25° S 21:39:20 53° ESE 21:43:24 10° NE visible
19 Jul 2.8 23:14:05 10° W 23:17:48 33° NW 23:21:38 10° NNE visible
20 Jul 3.5 19:59:24 11° ESE 20:00:10 11° ESE 20:01:24 10° E visible
20 Jul 1.3 21:35:16 24° SSW 21:37:36 68° SE 21:41:45 10° NE visible
20 Jul 3.1 23:12:38 10° W 23:16:14 28° NNW 23:19:54 10° NNE visible
21 Jul 3.2 19:57:19 14° ESE 19:58:16 14° ESE 20:00:32 10° ENE visible
21 Jul 1.3 21:33:11 21° SW 21:35:52 85° SE 21:40:03 10° NE visible
21 Jul 3.4 23:11:12 10° W 23:14:39 25° NNW 23:18:10 10° NNE visible
22 Jul 2.9 19:55:11 16° SE 19:56:24 18° ESE 19:59:16 10° ENE visible
22 Jul 1.4 21:31:02 17° SW 21:34:09 77° NW 21:38:21 10° NE visible
22 Jul 3.6 23:09:47 10° W 23:13:04 22° NNW 23:16:25 10° NNE visible
